| time (UTC) | temp F | wind direction | speed MPH | gust MPH | rain 1hr in | rain 24hr in | rain mn in | humidity % | barometer mb |
| 20260508050532 | 38 | 263 | 0.0 | 1.0 | 0.00 | 0.01 | 0.00 | 98 | 1008.9 |
| 20260508044532 | 39 | 0 | 0.0 | 0.0 | 0.00 | 0.07 | 0.00 | 98 | 1009.0 |
| 20260508042532 | 40 | 0 | 0.0 | 0.0 | 0.00 | 0.18 | 0.00 | 98 | 1009.2 |
| 20260508040532 | 41 | 0 | 0.0 | 0.0 | 0.00 | 0.22 | 0.00 | 98 | 1009.0 |
| 20260508034532 | 42 | 0 | 0.0 | 0.0 | 0.00 | 0.22 | 0.22 | 98 | 1009.2 |
| 20260508032532 | 42 | 0 | 0.0 | 0.0 | 0.00 | 0.22 | 0.22 | 98 | 1009.2 |
| 20260508020532 | 47 | 170 | 0.0 | 2.0 | 0.00 | 0.22 | 0.22 | 98 | 1008.5 |
| 20260508014533 | 48 | 57 | 0.0 | 2.0 | 0.00 | 0.22 | 0.22 | 98 | 1008.3 |
| 20260508012532 | 49 | 94 | 2.0 | 6.0 | 0.00 | 0.22 | 0.22 | 98 | 1008.2 |
| 20260508010532 | 50 | 161 | 1.0 | 4.0 | 0.00 | 0.24 | 0.22 | 98 | 1007.8 |
| 20260508004532 | 0 | 0 | 0.0 | 0.0 | 0.00 | 0.24 | 0.22 | 100 | |
| 20260508000532 | 52 | 0 | 0.0 | 0.0 | 0.00 | 0.25 | 0.22 | 98 | 1006.9 |
| 20260507222532 | 58 | 174 | 2.0 | 5.0 | 0.00 | 0.30 | 0.22 | 98 | 1005.6 |
| 20260507214533 | 61 | 244 | 2.0 | 4.0 | 0.00 | 0.39 | 0.22 | 98 | 1005.5 |
| 20260507204532 | 60 | 233 | 3.0 | 4.0 | 0.00 | 0.45 | 0.22 | 98 | 1004.9 |
| 20260507202532 | 60 | 250 | 4.0 | 5.0 | 0.00 | 0.47 | 0.22 | 98 | 1005.0 |
| 20260507180533 | 65 | 236 | 5.0 | 7.0 | 0.00 | 0.50 | 0.22 | 98 | 1006.0 |
| 20260507170532 | 66 | 232 | 5.0 | 7.0 | 0.00 | 0.50 | 0.22 | 98 | 1006.2 |
| 20260507164532 | 62 | 220 | 5.0 | 6.0 | 0.00 | 0.50 | 0.22 | 98 | 1006.4 |
| 20260507154532 | 69 | 253 | 4.0 | 8.0 | 0.00 | 0.50 | 0.22 | 98 | 1007.0 |
| 20260507152532 | 66 | 206 | 3.0 | 6.0 | 0.00 | 0.50 | 0.22 | 98 | 1007.2 |
| 20260507150532 | 67 | 261 | 3.0 | 5.0 | 0.00 | 0.50 | 0.22 | 98 | 1007.3 |
| 20260507144532 | 68 | 237 | 3.0 | 4.0 | 0.00 | 0.50 | 0.22 | 98 | 1007.4 |
| 20260507142533 | 68 | 262 | 2.0 | 4.0 | 0.00 | 0.50 | 0.22 | 98 | 1007.5 |
| 20260507140532 | 66 | 247 | 2.0 | 4.0 | 0.00 | 0.50 | 0.22 | 98 | 1007.8 |
| 20260507134532 | 63 | 208 | 3.0 | 5.0 | 0.00 | 0.50 | 0.22 | 98 | 1007.8 |
| 20260507132532 | 62 | 292 | 2.0 | 5.0 | 0.00 | 0.50 | 0.22 | 98 | 1008.0 |
| 20260507130533 | 0 | 196 | 2.0 | 3.0 | 0.00 | 0.50 | 0.22 | 100 | |
| 20260507122535 | 53 | 188 | 2.0 | 4.0 | 0.00 | 0.50 | 0.22 | 98 | 1008.3 |
| 20260507120532 | 53 | 238 | 1.0 | 2.0 | 0.00 | 0.50 | 0.22 | 98 | 1008.1 |
| 20260507112533 | 48 | 235 | 0.0 | 1.0 | 0.00 | 0.50 | 0.22 | 98 | 1008.7 |
| 20260507110532 | 47 | 0 | 0.0 | 0.0 | 0.00 | 0.50 | 0.22 | 98 | 1009.3 |
| 20260507104532 | 47 | 0 | 0.0 | 1.0 | 0.00 | 0.50 | 0.22 | 98 | 1009.0 |
| 20260507102532 | 47 | 204 | 1.0 | 2.0 | 0.00 | 0.50 | 0.22 | 98 | 1008.3 |
| 20260507100533 | 47 | 159 | 0.0 | 2.0 | 0.01 | 0.50 | 0.22 | 98 | 1008.1 |
| 20260507094532 | 47 | 195 | 1.0 | 2.0 | 0.01 | 0.50 | 0.22 | 98 | 1007.9 |
| 20260507092533 | 47 | 189 | 0.0 | 2.0 | 0.01 | 0.50 | 0.22 | 98 | 1008.0 |
| 20260507090532 | 48 | 193 | 1.0 | 4.0 | 0.00 | 0.49 | 0.21 | 98 | 1007.9 |
| 20260507084532 | 48 | 208 | 2.0 | 4.0 | 0.00 | 0.49 | 0.21 | 98 | 1007.5 |
| 20260507082532 | 49 | 215 | 1.0 | 2.0 | 0.00 | 0.49 | 0.21 | 98 | 1007.7 |
| 20260507080532 | 50 | 174 | 1.0 | 2.0 | 0.00 | 0.49 | 0.21 | 98 | 1007.3 |
| 20260507074532 | 50 | 265 | 0.0 | 2.0 | 0.00 | 0.49 | 0.21 | 98 | 1007.2 |
| 20260507072535 | 50 | 225 | 0.0 | 1.0 | 0.00 | 0.49 | 0.21 | 98 | 1006.8 |
| 20260507070532 | 50 | 0 | 0.0 | 0.0 | 0.00 | 0.49 | 0.21 | 98 | 1006.6 |
| 20260507064532 | 51 | 225 | 0.0 | 2.0 | 0.00 | 0.49 | 0.21 | 98 | 1006.6 |
| 20260507062532 | 51 | 199 | 2.0 | 3.0 | 0.00 | 0.49 | 0.21 | 98 | 1006.6 |
| 20260507060532 | 51 | 180 | 1.0 | 2.0 | 0.00 | 0.49 | 0.21 | 98 | 1006.3 |
| 20260507054532 | 51 | 145 | 1.0 | 6.0 | 0.06 | 0.49 | 0.21 | 98 | 1006.3 |
| 20260507052532 | 52 | 184 | 2.0 | 4.0 | 0.17 | 0.49 | 0.21 | 98 | 1006.3 |